timestamp,surface_pressure_avg,surface_temp_avg,battery_voltage,lat,long
2020-11-09 00:09:01+00:00,230.4831,8.6,12.73,47.84626,-54.09684
2020-11-09 00:19:01+00:00,230.9115,8.59,12.73,47.84626,-54.09684
2020-11-09 00:29:01+00:00,233.3731,8.56,12.73,47.84626,-54.09684
2020-11-09 00:39:01+00:00,237.6548,8.53,12.73,47.84626,-54.09684
2020-11-09 00:49:01+00:00,237.8031,8.56,12.73,47.84626,-54.09684
2020-11-09 00:59:01+00:00,235.6348,8.58,12.73,47.84626,-54.09684
2020-11-09 01:09:01+00:00,236.6247,8.6,12.73,47.84626,-54.09684
2020-11-09 01:19:01+00:00,240.3681,8.6,12.73,47.84626,-54.09684
2020-11-09 01:29:01+00:00,238.4314,8.6,12.73,47.84626,-54.09684
2020-11-09 01:39:01+00:00,234.6781,8.6,12.73,47.84626,-54.09684
2020-11-09 01:49:01+00:00,237.4697,8.6,12.73,47.84626,-54.09684
2020-11-09 01:59:01+00:00,242.1848,8.6,12.73,47.84626,-54.09684
2020-11-09 02:09:01+00:00,242.123,8.63,12.73,47.84626,-54.09684
2020-11-09 02:19:01+00:00,243.5198,8.63,12.73,47.84626,-54.09684
2020-11-09 02:29:01+00:00,250.8014,8.62,12.73,47.84626,-54.09684
2020-11-09 02:39:01+00:00,256.0131,8.61,12.73,47.84626,-54.09684
2020-11-09 02:49:01+00:00,257.1764,8.63,12.73,47.84626,-54.09684
2020-11-09 02:59:01+00:00,260.7548,8.64,12.73,47.84626,-54.09684
2020-11-09 03:09:01+00:00,267.9347,8.65,12.73,47.84626,-54.09684
2020-11-09 03:19:01+00:00,271.6281,8.66,12.73,47.84626,-54.09684
2020-11-09 03:29:01+00:00,271.9581,8.6,12.73,47.84626,-54.09684
2020-11-09 03:39:01+00:00,276.483,8.6,12.73,47.84626,-54.09684
2020-11-09 03:49:01+00:00,282.2047,8.6,12.73,47.84626,-54.09684
2020-11-09 03:59:01+00:00,284.668,8.64,12.73,47.84626,-54.09684
2020-11-09 04:09:01+00:00,288.6497,8.69,12.73,47.84626,-54.09684
2020-11-09 04:19:01+00:00,294.9831,8.7,12.65,47.84626,-54.09684
2020-11-09 04:29:01+00:00,297.4247,8.7,12.65,47.84626,-54.09684
2020-11-09 04:39:01+00:00,296.5414,8.72,12.65,47.84626,-54.09684
2020-11-09 04:49:01+00:00,299.1314,8.77,12.65,47.84626,-54.09684
2020-11-09 04:59:01+00:00,303.3214,8.75,12.65,47.84626,-54.09684
2020-11-09 05:09:01+00:00,304.8646,8.76,12.65,47.84626,-54.09684
2020-11-09 05:19:01+00:00,307.2713,8.78,12.65,47.84626,-54.09684
2020-11-09 05:29:01+00:00,310.8897,8.78,12.65,47.84626,-54.09684
2020-11-09 05:39:01+00:00,312.2663,8.78,12.65,47.84626,-54.09684
2020-11-09 05:49:01+00:00,311.2664,8.79,12.65,47.84626,-54.09684
2020-11-09 05:59:01+00:00,312.278,8.79,12.65,47.84626,-54.09684
2020-11-09 06:09:01+00:00,315.5081,8.79,12.65,47.84626,-54.09684
2020-11-09 06:19:01+00:00,317.5031,8.79,12.65,47.84626,-54.09684
2020-11-09 06:29:01+00:00,316.0231,8.8,12.65,47.84626,-54.09684
2020-11-09 06:39:01+00:00,314.573,8.8,12.65,47.84626,-54.09684
2020-11-09 06:49:01+00:00,311.5613,8.8,12.65,47.84626,-54.09684
2020-11-09 06:59:01+00:00,309.6713,8.8,12.65,47.84626,-54.09684
2020-11-09 07:09:01+00:00,307.0164,8.8,12.65,47.84626,-54.09684
2020-11-09 07:19:01+00:00,303.6547,8.8,12.65,47.84626,-54.09684
2020-11-09 07:29:01+00:00,300.9296,8.8,12.65,47.84626,-54.09684
2020-11-09 07:39:01+00:00,293.0181,8.8,12.65,47.84626,-54.09684
2020-11-09 07:49:01+00:00,285.668,8.79,12.65,47.84626,-54.09684
2020-11-09 07:59:01+00:00,280.2914,8.78,12.65,47.84626,-54.09684
2020-11-09 08:09:01+00:00,276.2964,8.78,12.65,47.84626,-54.09684
2020-11-09 08:19:01+00:00,269.188,8.71,12.65,47.84626,-54.09684
2020-11-09 08:29:01+00:00,265.6847,8.7,12.65,47.84626,-54.09684
2020-11-09 08:39:01+00:00,262.3148,8.6,12.65,47.84626,-54.09684
2020-11-09 08:49:01+00:00,255.2397,8.5,12.65,47.84626,-54.09684
2020-11-09 08:59:01+00:00,248.9514,8.49,12.65,47.84626,-54.09684
2020-11-09 09:09:01+00:00,245.7648,8.5,12.65,47.84626,-54.09684
2020-11-09 09:19:01+00:00,238.9747,8.56,12.65,47.84626,-54.09684
2020-11-09 09:29:01+00:00,233.6781,8.5,12.65,47.84626,-54.09684
2020-11-09 09:39:01+00:00,231.2814,8.2,12.65,47.84626,-54.09684
2020-11-09 09:49:01+00:00,227.3348,8.1,12.65,47.84626,-54.09684
2020-11-09 09:59:01+00:00,225.0765,8.1,12.65,47.84626,-54.09684
2020-11-09 10:09:01+00:00,224.7964,8.05,12.65,47.84626,-54.09684
2020-11-09 10:19:01+00:00,222.8331,8.1,12.65,47.84626,-54.09684
2020-11-09 10:29:01+00:00,218.8848,7.66,12.65,47.84626,-54.09684
2020-11-09 10:39:01+00:00,216.9381,7.41,12.65,47.84626,-54.09684
2020-11-09 10:49:01+00:00,218.0848,7.65,12.65,47.84626,-54.09684
2020-11-09 10:59:01+00:00,218.0464,7.9,12.65,47.84626,-54.09684
2020-11-09 11:09:01+00:00,217.4614,8.11,12.65,47.84626,-54.09684
2020-11-09 11:19:01+00:00,220.4831,8.26,12.73,47.84626,-54.09684
2020-11-09 11:29:01+00:00,223.2347,8.3,12.73,47.84626,-54.09684
2020-11-09 11:39:01+00:00,222.7781,8.38,12.73,47.84626,-54.09684
2020-11-09 11:49:01+00:00,223.6081,8.36,12.73,47.84626,-54.09684
2020-11-09 11:59:01+00:00,227.7748,8.37,12.73,47.84626,-54.09684
2020-11-09 12:09:01+00:00,226.1848,8.3,12.73,47.84626,-54.09684
2020-11-09 12:19:01+00:00,223.3864,8.3,13.44,47.84626,-54.09684
2020-11-09 12:29:01+00:00,227.4148,8.3,13.44,47.84626,-54.09684
2020-11-09 12:39:01+00:00,230.8014,8.36,13.44,47.84626,-54.09684
2020-11-09 12:49:01+00:00,229.7848,8.47,13.44,47.84626,-54.09684
2020-11-09 12:59:01+00:00,230.7898,8.5,13.44,47.84626,-54.09684
2020-11-09 13:09:01+00:00,233.8131,8.6,13.44,47.84626,-54.09684
2020-11-09 13:19:01+00:00,236.4298,8.69,14.64,47.84626,-54.09684
2020-11-09 13:29:01+00:00,240.5964,8.7,14.64,47.84626,-54.09684
2020-11-09 13:39:01+00:00,243.2431,8.7,14.64,47.84626,-54.09684
2020-11-09 13:49:01+00:00,243.4147,8.7,14.64,47.84626,-54.09684
2020-11-09 13:59:01+00:00,244.4814,8.7,14.64,47.84626,-54.09684
2020-11-09 14:09:01+00:00,248.1764,8.7,14.64,47.84626,-54.09684
2020-11-09 14:19:01+00:00,251.8114,8.7,14.4,47.84626,-54.09684
2020-11-09 14:29:01+00:00,256.2347,8.7,14.4,47.84626,-54.09684
2020-11-09 14:39:01+00:00,260.2964,8.7,14.4,47.84626,-54.09684
2020-11-09 14:49:01+00:00,262.3198,8.7,14.4,47.84626,-54.09684
2020-11-09 14:59:01+00:00,266.1497,8.7,14.4,47.84626,-54.09684
2020-11-09 15:09:01+00:00,274.2131,8.7,14.4,47.84626,-54.09684
2020-11-09 15:19:01+00:00,279.8098,8.7,13.84,47.84626,-54.09684
2020-11-09 15:29:01+00:00,279.6014,8.7,13.84,47.84626,-54.09684
2020-11-09 15:39:01+00:00,279.7664,8.7,13.84,47.84626,-54.09684
2020-11-09 15:49:01+00:00,286.3347,8.7,13.84,47.84626,-54.09684
2020-11-09 15:59:01+00:00,293.2714,8.7,13.84,47.84626,-54.09684
2020-11-09 16:09:01+00:00,296.3913,8.7,13.84,47.84626,-54.09684
2020-11-09 16:19:01+00:00,297.4747,8.7,13.44,47.84626,-54.09684
2020-11-09 16:29:01+00:00,302.238,8.7,13.44,47.84626,-54.09684
2020-11-09 16:39:01+00:00,309.8946,8.7,13.44,47.84626,-54.09684
2020-11-09 16:49:01+00:00,311.7531,8.7,13.44,47.84626,-54.09684
2020-11-09 16:59:01+00:00,312.2197,8.65,13.44,47.84626,-54.09684
2020-11-09 17:09:01+00:00,316.7446,8.7,13.44,47.84626,-54.09684
2020-11-09 17:19:01+00:00,319.938,8.7,13.05,47.84626,-54.09684
2020-11-09 17:29:01+00:00,320.013,8.7,13.05,47.84626,-54.09684
2020-11-09 17:39:01+00:00,324.978,8.6,13.05,47.84626,-54.09684
2020-11-09 17:49:01+00:00,332.728,8.6,13.05,47.84626,-54.09684
2020-11-09 17:59:01+00:00,330.7013,8.3,13.05,47.84626,-54.09684
2020-11-09 18:09:01+00:00,325.3547,8.2,13.05,47.84626,-54.09684
2020-11-09 18:19:01+00:00,330.958,8.2,12.81,47.84626,-54.09684
2020-11-09 18:29:01+00:00,335.8612,8.2,12.81,47.84626,-54.09684
2020-11-09 18:39:01+00:00,333.8913,8.2,12.81,47.84626,-54.09684
2020-11-09 18:49:01+00:00,328.48800000000006,8.2,12.81,47.84626,-54.09684
2020-11-09 18:59:01+00:00,332.7497,8.2,12.81,47.84626,-54.09684
2020-11-09 19:09:01+00:00,337.3513,8.2,12.81,47.84626,-54.09684
2020-11-09 19:19:01+00:00,331.528,8.2,12.73,47.84626,-54.09684
2020-11-09 19:29:01+00:00,324.8663,8.3,12.73,47.84626,-54.09684
2020-11-09 19:39:01+00:00,326.3414,8.39,12.73,47.84626,-54.09684
2020-11-09 19:49:01+00:00,323.4263,8.3,12.73,47.84626,-54.09684
2020-11-09 19:59:01+00:00,316.5263,8.3,12.73,47.84626,-54.09684
2020-11-09 20:09:01+00:00,312.7147,8.5,12.73,47.84626,-54.09684
2020-11-09 20:19:01+00:00,310.6764,8.5,12.73,47.84626,-54.09684
2020-11-09 20:29:01+00:00,301.203,8.4,12.73,47.84626,-54.09684
2020-11-09 20:39:01+00:00,293.8613,8.4,12.73,47.84626,-54.09684
2020-11-09 20:49:01+00:00,291.3997,8.4,12.73,47.84626,-54.09684
2020-11-09 20:59:01+00:00,290.6481,8.42,12.73,47.84626,-54.09684
2020-11-09 21:09:01+00:00,283.9498,8.4,12.73,47.84626,-54.09684
2020-11-09 21:19:01+00:00,279.853,8.4,12.73,47.84626,-54.09684
2020-11-09 21:29:01+00:00,272.703,8.4,12.73,47.84626,-54.09684
2020-11-09 21:39:01+00:00,270.9497,8.4,12.73,47.84626,-54.09684
2020-11-09 21:49:01+00:00,266.9098,8.4,12.73,47.84626,-54.09684
2020-11-09 21:59:01+00:00,262.5731,8.4,12.73,47.84626,-54.09684
2020-11-09 22:09:01+00:00,256.3281,8.4,12.73,47.84626,-54.09684
2020-11-09 22:19:01+00:00,254.2781,8.4,12.73,47.84626,-54.09684
2020-11-09 22:29:01+00:00,255.8597,8.44,12.73,47.84626,-54.09684
2020-11-09 22:39:01+00:00,252.0898,8.5,12.73,47.84626,-54.09684
2020-11-09 22:49:01+00:00,244.3014,8.4,12.73,47.84626,-54.09684
2020-11-09 22:59:01+00:00,241.9448,8.4,12.73,47.84626,-54.09684
2020-11-09 23:09:01+00:00,242.6281,8.43,12.73,47.84626,-54.09684
2020-11-09 23:19:01+00:00,238.813,8.45,12.65,47.84626,-54.09684
2020-11-09 23:29:01+00:00,234.8181,8.4,12.65,47.84626,-54.09684
2020-11-09 23:39:01+00:00,235.3114,8.4,12.65,47.84626,-54.09684
2020-11-09 23:49:01+00:00,234.6264,8.41,12.65,47.84626,-54.09684
2020-11-09 23:59:01+00:00,232.9214,8.49,12.65,47.84626,-54.09684
